Location: Bailleul
(50.3375°N, 2.8513°E)
Time: 20:30:10
(UTC+00:00)

RESURS DK-1 - Pass Details

Date: 19 April 2021
Orbit: 553 x 563 km, 69.9° (Epoch: 18 May)

Event Time Altitude Azimuth Distance (km) Brightness Sun altitude
Rises 20:14:07 0° 214° (SSW) 2,727 5.8 -12.7°
Reaches altitude 10° 20:16:18 10° 216° (SW) 1,838 5.0 -13.0°
Maximum altitude 20:20:24 76° 302° (WNW) 582 2.5 -13.5°
Drops below altitude 10° 20:24:34 10° 29° (NNE) 1,858 5.1 -14.0°
Sets 20:26:47 0° 31° (NNE) 2,760 6.0 -14.3°
